Regional Weather Roundup
Issued by NWS

Home | Current Version | Previous Version | Text Only | Print | Product List | Glossary Off
Versions: 1 2 3 4 5 6 7 8 9 10 11 12 13 14 15 16 17 18 19 20 21 22 23 24 25 26 27 28 29 30 31 32 33 34 35 36 37 38 39 40 41 42 43 44 45 46 47 48 49 50

000
ASUS43 KMKX 280300
RWRWI

WISCONSIN REGIONAL WEATHER ROUNDUP
NATIONAL WEATHER SERVICE MILWAUKEE/SULLIVAN WI
1000 PM CDT THU JUL 27 2017

NOTE: "FAIR" INDICATES FEW OR NO CLOUDS BELOW 12,000 FEET WITH NO
SIGNIFICANT WEATHER AND/OR OBSTRUCTIONS TO VISIBILITY.

WIZ001-002-006>008-014>016-023>028-280400-
NORTHWEST WISCONSIN

CITY           SKY/WX    TMP DP  RH WIND       PRES   REMARKS
SUPERIOR ARPT  NOT AVBL
ASHLAND        MOCLDY    61  58  90 NE5       30.08R
HAYWARD        CLEAR     63  57  81 CALM      30.07F
SIREN          CLEAR     67  59  77 CALM      30.08R
CUMBERLAND     PTCLDY    68  59  73 N5        30.07R
RICE LAKE      CLEAR     67  59  75 N6        30.07R
CHETEK         CLEAR     73  61  66 NE6       30.05R
LADYSMITH      CLOUDY    71  60  68 N8        30.08R
EAU CLAIRE     NOT AVBL
MENOMONIE      CLEAR     69  62  77 N6        30.04R
NEW RICHMOND   CLEAR     68  62  80 NE3       30.05R
OSCEOLA        CLEAR     67  61  80 CALM      30.07R
$$

WIZ003>005-009-010-017-018-280400-
NORTH CENTRAL WISCONSIN

CITY           SKY/WX    TMP DP  RH WIND       PRES   REMARKS
MANITOWISH WTR CLEAR     61  60  97 CALM      30.09R
ARBOR VITAE    CLEAR     69  58  68 CALM      30.08R
WOODRUFF       CLEAR     69  58  68 CALM      30.08R
RHINELANDER    CLOUDY    67  57  70 E3        30.09R
EAGLE RIVER    CLEAR     62  51  67 NE5       30.08S
LAND O LAKES   CLEAR     57  55  91 CALM      30.11S
PHILLIPS       CLEAR     65  61  87 N3        30.08R
TOMAHAWK         N/A     65  58  78 CALM      30.07R
MEDFORD        MOCLDY    65  61  85 CALM      30.05R
MERRILL        NOT AVBL
$$

WIZ029-030-035-036-043>047-280400-
CENTRAL WISCONSIN

CITY           SKY/WX    TMP DP  RH WIND       PRES   REMARKS
WAUSAU         PTCLDY    68  61  78 CALM      30.03R
MOSINEE        MOCLDY    66  63  88 NE3       30.05R
MARSHFIELD     MOCLDY    71  60  68 NE6       30.03R
STEVENS POINT  MOCLDY    69  63  83 CALM      30.03R
WAUPACA        CLEAR     72  61  68 CALM      30.02R
WAUTOMA        PTCLDY    66  61  84 CALM      30.02R
WISC RAPIDS    PTCLDY    68  61  78 CALM      30.03R
CAMP DOUGLAS   NOT AVBL
$$

WIZ011>013-019>022-031-037>040-048>050-280400-
NORTHEAST WISCONSIN

CITY           SKY/WX    TMP DP  RH WIND       PRES   REMARKS
ANTIGO         CLOUDY    66  59  76 E5        30.07R
SHAWANO        CLOUDY    71  58  63 E3        30.04R
OCONTO         MOCLDY    68  56  66 NE5       30.02R
STURGEON BAY     N/A     65  54  67 N7        30.03S
GREEN BAY      PTCLDY    68  59  73 E6        30.02R
MANITOWOC      NOT AVBL
APPLETON       MOCLDY    72  55  56 E8        30.01R
CLINTONVILLE   PTCLDY   N/A N/A N/A E7        30.03R
OSHKOSH        CLEAR     72  58  61 E6        30.01R
$$

WIZ032>034-041-042-053>061-280400-
SOUTHWEST WISCONSIN

CITY           SKY/WX    TMP DP  RH WIND       PRES   REMARKS
LA CROSSE      MOCLDY    78  63  59 N6        29.99R HX  80
SPARTA         MOCLDY    67  64  89 CALM      30.02R
VIROQUA        CLEAR     68  65  90 E3        30.02R
BOSCOBEL       PTCLDY    70  66  87 CALM      29.99R
PRAIRIE DU CHI PTCLDY    71  64  79 CALM      29.98R
PLATTEVILLE    CLEAR     71  66  85 NE6       30.00R
$$

WIZ056-057-062-063-064-067-068-280400-
SOUTH CENTRAL WISCONSIN

CITY           SKY/WX    TMP DP  RH WIND       PRES   REMARKS
REEDSBURG      CLEAR     66  64  93 CALM      30.00S
BARABOO/DELLS  CLEAR     66  61  83 CALM      30.00S
LONE ROCK      CLEAR     70  66  87 CALM      29.99R
MINERAL POINT  CLEAR     72  66  83 NE5       30.01R
MADISON        PTCLDY    68  57  68 CALM      29.99S
MIDDLETON      CLEAR     69  60  73 E3        30.00S
WATERTOWN      CLEAR     67  58  72 NE5       29.99S
MONROE         CLEAR     68  59  73 NE7       30.00R
JANESVILLE     CLEAR     70  54  56 NE6       29.98R
$$

WIZ051-052-058>065-066-070>072-280400-
SOUTHEAST WISCONSIN

CITY           SKY/WX    TMP DP  RH WIND       PRES   REMARKS
MILWAUKEE      PTCLDY    70  61  73 N13       29.97R
WAUKESHA       NOT AVBL
MILWAUKEE/TIMM PTCLDY    70  52  52 N10       29.99S
RACINE         CLEAR     69  62  78 N12       29.98S
KENOSHA        CLEAR     68  58  70 N8        29.97S
FOND DU LAC    PTCLDY    70  56  61 E6        30.01R
SHEBOYGAN      PTCLDY    65  60  84 N6        30.00S
WEST BEND      PTCLDY    64  57  77 N6        30.00S
JUNEAU         PTCLDY    68  57  68 NE3       30.02R
$$

LSZ147-162-280400-
LAKE SUPERIOR

STATION/POSITION TIME  TEMP    WIND        PRES    WAVE
                       AIR SEA DIR/SP/G            HT/PER
                 (UTC) (F)     (DEG/KT/KT) (MB)    (FT/S)
W MID LAKE BUOY  0150   58 55  320/  4/  4 1018.0F   0
DEVILS ISLAND    0200   63      30/  5/  7 1018.2R
PORT WING        0151   66     360/ 14/ 20 1018.3S
SAXON HARBOR     0230   64     310/  5/  6 1017.3S
$$

LMZ867-665-643>646-280400-
LAKE MICHIGAN

STATION/POSITION TIME  TEMP    WIND        PRES    WAVE
                       AIR SEA DIR/SP/G            HT/PER
                 (UTC) (F)     (DEG/KT/KT) (MB)    (FT/S)
CHAMBERS ISLAND  0240   69      10/ 15/ 17 1016.3R
S GREEN BAY BUOY 0230   71 72   70/ 17/ 23 1016.1R
N MID LAKE BUOY  0150   67 66   10/ 14/ 17 1016.5S   2/ 4
NORTHPORT PIER   0240   67     360/  9/ 11 1016.6R
KEWAUNEE LAKESHO 0230   68      40/  9/ 12 1015.7R
SHEBOYGAN LAKESH 0200   69      10/ 10/ 11 1015.2S
PORT WASHINGTON  0240   71     350/  6/ 14 1016.3R
ATWATER BUOY     0109   70 69   10/ 14/ 17 1014.7F
MILWAUKEE LAKESH 0230   70     360/ 12/ 15   N/A
S MID LAKE BUOY  0150   72 71   20/ 17/ 21 1012.9F   5/ 6
KENOSHA   LAKESH 0200   71      10/ 17/ 19 1013.9
$$

TC  - TEMPERATURE IN CELSIUS
VSB - VISIBILITY IN STATUTE MILES
WCI - WIND CHILL INDEX
HX  - HEAT INDEX




USA.gov is the U.S. government's official web portal to all federal, state and local government web resources and services.